{"data":{"norad_id":62231,"epoch":"2026-05-24T15:16:34.711968Z","epoch_age_seconds":110026,"freshness":"FRESH","line1":"1 62231U 24231P   26144.63651287  .00024580  00000+0  83933-3 0  9998","line2":"2 62231  53.1588 227.0448 0001093  88.2955 271.8171 15.30197983 83399","mean_motion":15.30197983,"eccentricity":0.0001093,"inclination_deg":53.1588,"raan_deg":227.0448,"arg_perigee_deg":88.2955,"mean_anomaly_deg":271.8171,"bstar":0.00083933,"rev_number":8339,"period_min":94.105469749531,"perigee_km":474.47201978494,"apogee_km":475.97016386381,"semimajor_km":6853.3580918244,"source":"CELESTRAK","updated_at":"2026-05-25T13:38:19.615882Z"}}